Regional Weather Roundup
Issued by NWS

Home | Current Version | Previous Version | Graphics & Text | Print | Product List | Glossary Off
Versions: 1 2 3 4 5 6 7 8 9 10 11 12 13 14 15 16 17 18 19 20 21 22 23 24 25 26 27 28 29 30 31 32 33 34 35 36 37 38 39 40 41 42 43 44 45 46 47 48 49 50

000
ASUS43 KDTX 180610
RWRMI
MICHIGAN HOURLY REGIONAL WEATHER ROUNDUP
NATIONAL WEATHER SERVICE DETROIT/PONTIAC MI
200 AM EDT SAT APR 18 2015

NOTE: "FAIR" INDICATES FEW OR NO CLOUDS BELOW 12,000 FEET WITH NO
SIGNIFICANT WEATHER AND/OR OBSTRUCTION TO VISIBILITY.

MIZ047>049-052>055-059>063-066>070-074>076-081>083-180700-
SOUTHEAST LOWER MICHIGAN

CITY           SKY/WX    TMP DP  RH WIND       PRES   REMARKS
ADRIAN           N/A     51  44  77 CALM      30.02S
6HR MIN TEMP:  51; 6HR MAX TEMP:  70;

ALMA             N/A     49  43  81 CALM      29.99S
ANN ARBOR        N/A     47  43  86 W3        30.00S
BAD AXE          N/A     44  40  87 CALM      29.97F
DETROIT CITY     N/A     53  43  68 CALM      30.00S
6HR MIN TEMP:  52; 6HR MAX TEMP:  65;

DETROIT          N/A     53  44  71 CALM      30.00F
6HR MIN TEMP:  53; 6HR MAX TEMP:  65;

FLINT            N/A     56  40  55 W5        30.00S
6HR MIN TEMP:  56; 6HR MAX TEMP:  71;

GROSSE ILE       N/A     48  45  87 CALM      29.98F
HILLSDALE        N/A     55  40  58 CALM      30.02S
6HR MIN TEMP:  54; 6HR MAX TEMP:  69;

HOWELL           N/A     54  39  57 CALM      30.00S

CITY           SKY/WX    TMP DP  RH WIND       PRES   REMARKS
JACKSON          N/A     49  42  77 SW3       30.01F
6HR MIN TEMP:  49; 6HR MAX TEMP:  71;

LAMBERTVILLE     N/A     52  43  71 CALM      30.01S
LANSING          N/A     51  45  79 CALM      30.01S
6HR MIN TEMP:  51; 6HR MAX TEMP:  69;

LAPEER         NOT AVBL
MASON            N/A     47  41  77 CALM      30.01S
MONROE           N/A     48  46  93 CALM      29.99S
PONTIAC          N/A     52  47  83 W5        29.99F
6HR MIN TEMP:  52; 6HR MAX TEMP:  70;

PORT HOPE        N/A     43  40  89 S7        29.95F
6HR MIN TEMP:  42; 6HR MAX TEMP:  46;

PORT HURON       N/A     48  45  87 S3        29.99F
TRI CITIES       N/A     50  42  74 CALM      29.99F
6HR MIN TEMP:  48; 6HR MAX TEMP:  70;

YPSILANTI        N/A     55  43  63 CALM      30.00F
6HR MIN TEMP:  54; 6HR MAX TEMP:  69;

$$
MIZ043>046-050>051-056>058-064>065-071>073-077>080-180700-
SOUTHWEST LOWER MICHIGAN

CITY           SKY/WX    TMP DP  RH WIND       PRES   REMARKS
BATTLE CREEK     N/A     54  42  64 CALM      30.02S
6HR MIN TEMP:  52; 6HR MAX TEMP:  71;

BENTON HARBOR    N/A     50  45  83 CALM      30.00F
6HR MIN TEMP:  50; 6HR MAX TEMP:  68;

BIG RAPIDS       N/A     46  39  77 CALM      29.99S
6HR MIN TEMP:  46; 6HR MAX TEMP:  67;

COLDWATER        N/A     50  44  80 CALM      30.01F
6HR MIN TEMP:  49; 6HR MAX TEMP:  68;

HOLLAND          N/A     53  45  74 CALM      30.01S
6HR MIN TEMP:  52; 6HR MAX TEMP:  67;

GRAND RAPIDS     N/A     50  41  71 S5        30.00F
6HR MIN TEMP:  50; 6HR MAX TEMP:  69;

KALAMAZOO        N/A     52  46  80 CALM      30.01F
6HR MIN TEMP:  51; 6HR MAX TEMP:  70;

MARSHALL         N/A     46  40  78 CALM      30.01S
MUSKEGON         N/A     47  41  80 CALM      30.00S
6HR MIN TEMP:  47; 6HR MAX TEMP:  59;

$$
MIZ016>042-180700-
NORTHERN LOWER MICHIGAN

CITY           SKY/WX    TMP DP  RH WIND       PRES   REMARKS
ALPENA           N/A     38  34  85 CALM      29.97S
6HR MIN TEMP:  38; 6HR MAX TEMP:  56;

BEAVER ISLAND    N/A     36  32  86 CALM      29.96F
6HR MIN TEMP:  36; 6HR MAX TEMP:  58;

BELLAIRE         N/A     40  38  91 CALM      30.00R
6HR MIN TEMP:  39; 6HR MAX TEMP:  61;

CADILLAC         N/A     44  37  77 SW3       29.98S
CHARLEVOIX       N/A     41  35  78 S7        30.00F
6HR MIN TEMP:  37; 6HR MAX TEMP:  58;

FRANKFORT        N/A     52  35  51 CALM      30.00R
GAYLORD          N/A     40  36  86 CALM      29.98R
6HR MIN TEMP:  40; 6HR MAX TEMP:  62;

GRAYLING         N/A     37  33  85 CALM      29.99R
6HR MIN TEMP:  37; 6HR MAX TEMP:  63;

HARBOR SPRINGS   N/A     35  32  88 CALM      29.98F
MANISTEE         N/A     41  37  87 E3        30.00S
OSCODA           N/A     35  32  88 CALM      29.96F
PELLSTON         N/A     35  29  78 CALM      29.97F
6HR MIN TEMP:  34; 6HR MAX TEMP:  60;

TRAVERSE CITY    N/A     44  38  79 CALM      29.98R
6HR MIN TEMP:  42; 6HR MAX TEMP:  52;

$$
MIZ007>008-015-180700-
EASTERN UPPER MICHIGAN

CITY           SKY/WX    TMP DP  RH WIND       PRES   REMARKS
KINROSS          N/A     43  28  56 SW6       29.92F
6HR MIN TEMP:  39; 6HR MAX TEMP:  54;

MACKINAC ISLAN   N/A     44  32  64 SW12      29.95F
6HR MIN TEMP:  40; 6HR MAX TEMP:  53;

NEWBERRY         N/A     46  32  59 SW10      29.92F
S. S. MARIE    CLOUDY    37  27  67 E5        29.91F
6HR MIN TEMP:  37; 6HR MAX TEMP:  50;

$$
MIZ004>006-011>014-085-180700-
CENTRAL UPPER MICHIGAN

CITY           SKY/WX    TMP DP  RH WIND       PRES   REMARKS
MANISTIQUE       N/A     34  32  91 CALM      29.94F
ESCANABA         N/A     36  28  75 W5        29.97S
6HR MIN TEMP:  34; 6HR MAX TEMP:  50;

MENOMINEE        N/A     41  36  81 CALM      29.98F
6HR MIN TEMP:  41; 6HR MAX TEMP:  57;

SAWYER-GWINN     N/A     46  32  57 N20       30.02R
$$
MIZ001>003-009>011-084-180700-
WESTERN UPPER MICHIGAN

CITY           SKY/WX    TMP DP  RH WIND       PRES   REMARKS
IRON MOUNTAIN    N/A     40  35  83 N3        29.98S
6HR MIN TEMP:  37; 6HR MAX TEMP:  64;

HOUGHTON         N/A     42  33  70 N21G35    30.07R
6HR MIN TEMP:  42; 6HR MAX TEMP:  57;

COPPER HARBOR    N/A     39  33  79 N15G26    30.07R
6HR MIN TEMP:  39; 6HR MAX TEMP:  56;

IRONWOOD         N/A     50  28  43 NE7       30.08R
6HR MIN TEMP:  45; 6HR MAX TEMP:  66;

$$

ABBREVIATIONS USED IN REMARKS
   TC - TEMPERATURE IN CELSIUS
  WCI - WIND CHILL INDEX
   HX - HEAT INDEX
  VSB - VISIBILITY




USA.gov is the U.S. government's official web portal to all federal, state and local government web resources and services.